Flag for U.S.A. Weather past 2 weeks in Yonkers, New York, U.S.A.

Now
81 °F

Sunny.


Feels Like: 79 °F
Forecast: 53 / 79 °F
Wind: No wind

Location: Teterboro Airport

Current Time: May 24, 2015 at 4:12:41 PM

Latest Report: May 24, 2015 at 3:51 PM


Visibility: 10 mi

Pressure: 30.22 "Hg

Humidity: 21%

Dew point: 37 °F

Location of YonkersLocation

Historic Weather in Yonkers — Graph

°F

Yonkers temperature yesterday

Maximum temperature yesterday: 70 °F (at 3:51 PM)
Minimum temperature yesterday: 47 °F (at 5:51 AM)
Average temperature yesterday: 58 °F

Past Weeks' High & Low Weather Summary

 TemperatureHumidityPressure
High85 °F (May 12, 1:51 PM)100% (May 10, 4:58 AM)30.41 "Hg (May 10, 4:58 AM)
Low47 °F (May 23, 5:51 AM)17% (May 14, 3:51 PM)29.73 "Hg (May 12, 5:51 PM)
Average65 °F58%30.09 "Hg
* Reported May 9 1:51 PM — May 24 1:51 PM, Yonkers, Weather by CustomWeather, © 2015

Note: Actual official high and low records may vary slightly from our data, if they occured in-between our weather recording intervals... More about our weather records

Advertising

Yonkers weather history for previous 24 hours

 ConditionsComfort  
Time TempWeatherWind HumidityBarometerVisibility
1:51 PM
Sun, May 24
79 °FSunny.12 mph25%30.26 "Hg10 mi
12:51 PM77 °FSunny.6 mph26%30.29 "Hg10 mi
11:51 AM77 °FSunny.8 mph26%30.31 "Hg10 mi
10:51 AM74 °FSunny.12 mph31%30.32 "Hg10 mi
9:51 AM71 °FSunny.10 mph35%30.34 "Hg10 mi
8:51 AM64 °FSunny.7 mph41%30.36 "Hg10 mi
7:51 AM57 °FSunny.6 mph58%30.35 "Hg10 mi
6:51 AM52 °FSunny.5 mph64%30.35 "Hg10 mi
5:51 AM50 °FClear.No wind63%30.34 "Hg10 mi
4:51 AM50 °FClear.3 mph63%30.34 "Hg10 mi
3:51 AM51 °FClear.No wind63%30.34 "Hg10 mi
2:51 AM51 °FClear.3 mph66%30.34 "Hg10 mi
1:51 AM52 °FClear.3 mph66%30.34 "Hg10 mi
12:51 AM55 °FClear.3 mph64%30.34 "Hg10 mi
11:51 PM
Sat, May 23
55 °FClear.6 mph64%30.34 "Hg10 mi
10:51 PM57 °FClear.5 mph58%30.34 "Hg10 mi
9:51 PM57 °FClear.No wind55%30.32 "Hg10 mi
8:51 PM60 °FSunny.3 mph47%30.31 "Hg10 mi
7:51 PM63 °FSunny.7 mph41%30.31 "Hg10 mi
6:51 PM69 °FSunny.8 mph17%30.31 "Hg10 mi
5:51 PM70 °FSunny.9 mph18%30.32 "Hg10 mi
4:51 PM69 °FSunny.5 mph18%30.32 "Hg10 mi
Weather by CustomWeather, © 2015

See weather overviewHow to use our weather pages